This is the latest recevied weather packets stored in our database for station/object KF7ROW. If no packets are shown the sender has not sent any weather packets the latest 10 day(s).
| Time | Temp. | Humidity | Pressure | Rain* | Wind** | Luminosity | Snow |
|---|---|---|---|---|---|---|---|
| 1777246070 | 12.78° C | 74% | 1017.3 hPa | 0 mm | - | 398 W/m² | - |
| 1777245768 | 12.78° C | 73% | 1017.1 hPa | 0 mm | - | 581 W/m² | - |
| 1777245465 | 12.22° C | 74% | 1017.4 hPa | 0 mm | - | 578 W/m² | - |
| 1777245160 | 12.22° C | 75% | 1017.3 hPa | 0 mm | - | 207 W/m² | - |
| 1777244857 | 12.22° C | 75% | 1017.2 hPa | 0 mm | - | 255 W/m² | - |
| 1777244552 | 12.22° C | 78% | 1017.3 hPa | 0 mm | - | 232 W/m² | - |
| 1777244249 | 12.22° C | 77% | 1017.3 hPa | 0 mm | - | 219 W/m² | - |
| 1777243948 | 12.22° C | 78% | 1017.5 hPa | 0 mm | - | 295 W/m² | - |
| 1777243644 | 12.22° C | 80% | 1017.5 hPa | 0 mm | - | 236 W/m² | - |
| 1777243341 | 12.78° C | 80% | 1017.3 hPa | 0 mm | - | 259 W/m² | - |
| 1777243036 | 12.78° C | 77% | 1017.4 hPa | 0 mm | - | 235 W/m² | - |
| 1777242733 | 13.33° C | 76% | 1017.4 hPa | 0 mm | - | 289 W/m² | - |
| 1777242429 | 12.78° C | 74% | 1017.4 hPa | 0 mm | - | 731 W/m² | - |
| 1777242126 | 12.22° C | 75% | 1017.4 hPa | 0 mm | - | 279 W/m² | - |
| 1777241823 | 12.22° C | 77% | 1017.6 hPa | 0 mm | - | 800 W/m² | - |
| 1777241521 | 12.78° C | 77% | 1017.3 hPa | 0 mm | - | 317 W/m² | - |
| 1777241218 | 12.78° C | 76% | 1017.2 hPa | 0 mm | - | 578 W/m² | - |
| 1777240915 | 12.78° C | 76% | 1017.3 hPa | 0 mm | - | 444 W/m² | - |
| 1777240613 | 12.78° C | 77% | 1017.5 hPa | 0 mm | - | 606 W/m² | - |
| 1777240311 | 12.78° C | 77% | 1017.3 hPa | 0 mm | - | 292 W/m² | - |
| 1777240008 | 13.33° C | 74% | 1017.4 hPa | 0 mm | - | 854 W/m² | - |
| 1777239705 | 12.78° C | 76% | 1017.2 hPa | 0 mm | - | 906 W/m² | - |
| 1777239402 | 12.78° C | 77% | 1017.3 hPa | 0 mm | - | 899 W/m² | - |
| 1777239099 | 12.78° C | 77% | 1017.1 hPa | 0 mm | - | 323 W/m² | - |
| 1777238796 | 12.22° C | 77% | 1017.1 hPa | 0 mm | - | 383 W/m² | - |
* Rain latest hour (hover to see other rain measurements)
** Current wind speed in m/s (hover to see current wind gust speed)